This is the latest recevied weather packets stored in our database for station/object N8BAP. If no packets are shown the sender has not sent any weather packets the latest 10 day(s).
| Time | Temp. | Humidity | Pressure | Rain* | Wind** | Luminosity | Snow |
|---|---|---|---|---|---|---|---|
| 1788538234 | 32.22° C | 64% | 1022.2 hPa | 0 mm | - | 597 W/m² | - |
| 1788537907 | 32.22° C | 61% | 1022.4 hPa | 0 mm | - | 638 W/m² | - |
| 1788537603 | 32.22° C | 62% | 1022.3 hPa | 0 mm | - | 652 W/m² | - |
| 1788537297 | 32.22° C | 61% | 1022.5 hPa | 0 mm | - | 657 W/m² | - |
| 1788536996 | 32.22° C | 63% | 1022.1 hPa | 0 mm | - | 655 W/m² | - |
| 1788536690 | 32.22° C | 60% | 1022.3 hPa | 0 mm | - | 665 W/m² | - |
| 1788536385 | 31.67° C | 61% | 1022.3 hPa | 0 mm | - | 633 W/m² | - |
| 1788536080 | 32.22° C | 60% | 1022.1 hPa | 0 mm | - | 577 W/m² | - |
| 1788535777 | 31.67° C | 63% | 1022.3 hPa | 0 mm | - | 569 W/m² | - |
| 1788535472 | 31.67° C | 64% | 1022.2 hPa | 0 mm | - | 601 W/m² | - |
| 1788535171 | 31.67° C | 66% | 1022.3 hPa | 0 mm | - | 609 W/m² | - |
| 1788534867 | 31.67° C | 63% | 1022.1 hPa | 0 mm | - | 577 W/m² | - |
| 1788534562 | 31.67° C | 67% | 1022.1 hPa | 0 mm | - | 484 W/m² | - |
| 1788534257 | 31.67° C | 64% | 1021.6 hPa | 0 mm | - | 428 W/m² | - |
| 1788533954 | 31.11° C | 66% | 1021.9 hPa | 0 mm | - | 451 W/m² | - |
| 1788533651 | 31.11° C | 65% | 1022.1 hPa | 0 mm | - | 544 W/m² | - |
| 1788533346 | 31.11° C | 70% | 1022.2 hPa | 0 mm | - | 553 W/m² | - |
| 1788533042 | 31.11° C | 67% | 1022.3 hPa | 0 mm | - | 516 W/m² | - |
| 1788532737 | 30.56° C | 67% | 1021.9 hPa | 0 mm | - | 501 W/m² | - |
| 1788532434 | 30.56° C | 68% | 1022.1 hPa | 0 mm | - | 478 W/m² | - |
| 1788532130 | 30.56° C | 68% | 1022.1 hPa | 0 mm | - | 457 W/m² | - |
| 1788531826 | 30° C | 69% | 1021.9 hPa | 0 mm | - | 449 W/m² | - |
| 1788531525 | 30° C | 69% | 1021.9 hPa | 0 mm | - | 436 W/m² | - |
| 1788531220 | 30° C | 70% | 1021.9 hPa | 0 mm | - | 423 W/m² | - |
| 1788530917 | 29.44° C | 71% | 1021.9 hPa | 0 mm | - | 398 W/m² | - |
* Rain latest hour (hover to see other rain measurements)
** Current wind speed in m/s (hover to see current wind gust speed)